Regional Weather Roundup
Issued by NWS

Home | Current Version | Previous Version | Graphics & Text | Print | Product List | Glossary On
Versions: 1 2 3 4 5 6 7 8 9 10 11 12 13 14 15 16 17 18 19 20 21 22 23 24 25 26 27 28 29 30 31 32 33 34 35 36 37 38 39 40 41 42 43 44 45 46 47 48 49 50
000
ASUS45 KSLC 200910
RWRUT

UTAH REGIONAL WEATHER ROUNDUP
NATIONAL WEATHER SERVICE SALT LAKE CITY UT
300 AM MDT MON OCT 20 2014

UTZ001>011-023>025-201000-

NORTHERN UTAH

CITY           SKY/WX    TMP DP  RH WIND       PRES   REMARKS
BRIGHAM CITY   CLEAR     44  37  76 CALM      30.05S
HILL AFB       CLEAR     54  32  42 E17G25    30.05S
LOGAN          CLEAR     41  34  76 CALM      30.07R
OGDEN          CLEAR     50  36  58 NE6       30.04R
PROVO AIRPORT  CLEAR     45  37  76 CALM      30.07R
SALT LAKE CITY CLEAR     51  39  63 SE9       30.02S
VERNAL         CLEAR     44  32  62 W5        30.13R
WENDOVER       PTCLDY    46  34  61 E5        30.03S
HEBER CITY     CLEAR     34  30  86 CALM      30.14R
WEST JORDAN    CLEAR     52  41  66 S8        30.05S

$$

UTZ012>022-026-027-201000-

SOUTHERN/CENTRAL UTAH

CITY           SKY/WX    TMP DP  RH WIND       PRES   REMARKS
BLANDING       PTCLDY    46  38  72 N6        30.25S
BRYCE CANYON   CLEAR     31  28  89 W5        30.23S WCI  26
CEDAR CITY     CLEAR     45  36  70 SW5       30.09R
DELTA          CLEAR     47  34  59 W6        30.06R
HANKSVILLE       N/A     45  32  61 CALM      30.11R
MILFORD        CLEAR     47  32  56 S3        30.07R
MOAB/CYNLANDS  CLEAR     54  39  57 CALM      30.07R
PRICE          CLEAR     47  30  51 NE5       30.14S
ST GEORGE      SUNNY     61  34  36 CALM      29.97S
KANAB            N/A     52  34  50 NW12      30.12R

$$

REGIONAL REPORTS     COLORADO/ARIZONA

CITY           SKY/WX    TMP DP  RH WIND       PRES   REMARKS
CRAIG, CO      CLEAR     31  27  85 CALM      30.19F
GRAND JUNCTION CLEAR     51  34  52 CALM      30.10F
RIFLE          CLEAR     42  35  76 SE3       30.17R
MONTROSE       CLEAR     47  38  71 S8        30.18F
CORTEZ         CLEAR     42  41  96 N3        30.19R
PAGE, AZ       NOT AVBL
GRAND CANYON   CLEAR     39  33  79 CALM      30.17S
KINGMAN        CLEAR     55  43  63 SE9       29.98R
FLAGSTAFF      CLEAR     36  33  89 CALM      30.19R

$$

REGIONAL REPORTS    NEVADA/IDAHO/WYOMING

CITY           SKY/WX    TMP DP  RH WIND       PRES   REMARKS
LAS VEGAS, NV  CLEAR     69  37  30 SW7       29.85S
ELY            CLEAR     41  30  65 S14       30.11S
ELKO           PTCLDY    46  29  51 NE7       30.01S
POCATELLO, ID  CLEAR     38  33  82 NE3       30.04S
BURLEY         CLEAR     45  35  68 NE9       29.98S
EVANSTON, WY   CLEAR     46  27  47 SE3       30.19S
ROCK SPRINGS   PTCLDY    44  28  53 CALM      30.18S
KEMMERER       PTCLDY    37  27  65 N12       30.20F WCI  30

$$


USA.gov is the U.S. government's official web portal to all federal, state and local government web resources and services.